www.pogodaiklimat.ru
ПОГОДА в Дюссельдорфе
Время
(UTC), дата
01 22.02
02 22.02
03 22.02
04 22.02
05 22.02
06 22.02
07 22.02
08 22.02
09 22.02
10 22.02
11 22.02
12 22.02
13 22.02
14 22.02
15 22.02
16 22.02
17 22.02
18 22.02
19 22.02
20 22.02
21 22.02
22 22.02
23 22.02
00 23.02
01 23.02
02 23.02
03 23.02
04 23.02
05 23.02
06 23.02
07 23.02
08 23.02
09 23.02
10 23.02
11 23.02
12 23.02
13 23.02
14 23.02
15 23.02
16 23.02
17 23.02
18 23.02
19 23.02
20 23.02
21 23.02
22 23.02
23 23.02
00 24.02
01 24.02
02 24.02
03 24.02
04 24.02
05 24.02
06 24.02
07 24.02
08 24.02
09 24.02
10 24.02
11 24.02
12 24.02
13 24.02
14 24.02
15 24.02
16 24.02
17 24.02
18 24.02
19 24.02
20 24.02
21 24.02
22 24.02
23 24.02
00 25.02
01 25.02
02 25.02
03 25.02
04 25.02
05 25.02
06 25.02
07 25.02
08 25.02
09 25.02
10 25.02
11 25.02
12 25.02
13 25.02
14 25.02
15 25.02
16 25.02
17 25.02
18 25.02
19 25.02
20 25.02
21 25.02
22 25.02
23 25.02
00 26.02
01 26.02
02 26.02
03 26.02
04 26.02
05 26.02
06 26.02
07 26.02
08 26.02
09 26.02
10 26.02
11 26.02
12 26.02
13 26.02
14 26.02
15 26.02
16 26.02
17 26.02
18 26.02
19 26.02
20 26.02
21 26.02
22 26.02
23 26.02
00 27.02
01 27.02
02 27.02
03 27.02
04 27.02
05 27.02
06 27.02
07 27.02
08 27.02
09 27.02
10 27.02
11 27.02
12 27.02
13 27.02
14 27.02
15 27.02
16 27.02
17 27.02
18 27.02
19 27.02
20 27.02
21 27.02
22 27.02
23 27.02
00 28.02
01 28.02
02 28.02
03 28.02
04 28.02
05 28.02
06 28.02
07 28.02
08 28.02
09 28.02
10 28.02
11 28.02
12 28.02
13 28.02
14 28.02
15 28.02
16 28.02
17 28.02
18 28.02
19 28.02
20 28.02
21 28.02
22 28.02
23 28.02
00 29.02
Ветер
(напр.,м/с)
Видим. Явления Облачность Т
(С)
Тd
(С)
f
(%)
Тe
(С)
Тes
(С)
Комфортность P
(гПа)
Po
(гПа)
Тmin
(С)
Tmax
(С)
R
(мм)
R24
(мм)
S
(см)
ЮЗ 9-13
{15}
50 км 10/10 930 м
[Sc]
+7.2 +2.4 72 +2 +2 1023.7 1018.7
ЮЗ 8-11
{12}
50 км 10/10 800 м
[Sc]
+7.1 +2.6 73 +2 +2 1022.8 1017.8
Ю 7 50 км 3/3 800 м
[Sc]
+6.2 +2.3 76 +1 +1 1021.8 1016.8
Ю 8-11
{12}
50 км 3/1 750 м
[Sc Ci fib]
+6.1 +1.8 74 +1 +1 1021.3 1016.3
Ю 8-10
{12}
50 км 3/0
[Ac trans]
+6.2 +1.0 69 +1 +1 1020.6 1015.6
Ю 8 50 км 3/0
[Ac As Ci fib]
+6.4 0.0 64 +1 +1 1020.1 1015.1 +5.6 +8.2
Ю 9 50 км 9/0
[Ac As]
+7.5 -0.7 56 +3 +3 1020.0 1015.0
Ю 11 50 км осадки на расстоянии 9/0
[Ac As]
+8.4 -0.4 54 +4 +4 1019.5 1014.5
ЮЗ 10 55 км осадки на расстоянии 9/0
[Ac As]
+9.0 -1.1 49 +5 +5 1019.7 1014.7
ЮЗ 10 55 км осадки на расстоянии 9/0
[Ac As]
+9.4 -0.3 51 +5 +5 1019.6 1014.6
ЮЗ 11 55 км слаб. дождь 9/6 960 м
[Sc Ac As]
+9.6 +0.9 55 +5 +5 1019.6 1014.6
ЮЗ 11 40 км слаб. дождь 10/9 900 м
[Sc As trans]
+9.1 +2.7 64 +4 +4 1019.8 1014.8 0.0
ЮЗ 14-19
{19}
40 км в посл. час дождь 10/9 900 м
[Sc]
+9.4 +3.8 68 +4 +4 1020.5 1015.5
ЮЗ 11-14
{16}
40 км 10/9 750 м
[Sc]
+9.2 +4.6 73 +4 +4 1020.6 1015.6
ЮЗ 10 40 км {дождь} 10/9 750 м
[Sc]
+9.5 +5.8 78 +5 +5 1020.2 1015.2 0.0
ЮЗ 10-13
{18}
40 км 10/9 570 м
[Sc]
+9.7 +6.4 80 +5 +5 1020.2 1015.2
ЮЗ 11-14
{16}
40 км 10/9 540 м
[Sc]
+9.8 +6.7 81 +5 +5 1020.4 1015.4
ЮЗ 10 40 км слаб. дождь 10/10 300 м
[Sc]
+9.7 +7.2 84 +5 +5 1020.9 1015.9 +6.0 +10.0 0.0
ЮЗ 9 15 км слаб. дождь 10/9 360 м
[Sc]
+9.5 +8.0 90 +5 +5 1021.3 1016.3
ЮЗ 8 17 км слаб. дождь 10/9 270 м
[Cu Sc As op]
+9.5 +8.3 92 +5 +5 1021.4 1016.4
ЮЗ 6 8000 м дождь 10/9 270 м
[Cu Sc As op]
+9.4 +8.8 96 +6 +6 1021.5 1016.5 2
ЮЗ 8 22 км слаб. дождь 10/5 360 м
[Cu Sc As op]
+9.7 +8.2 90 +5 +5 1021.5 1016.5
ЮЗ 7 35 км в посл. час дождь 10/9 400 м
[Cu Sc]
+9.6 +7.5 87 +6 +6 1021.6 1016.6
ЮЗ 8 25 км в посл. час дождь 10/9 300 м
[Cu Sc Ac As]
+9.6 +7.9 89 +5 +5 1021.6 1016.6 2
ЮЗ 7 20 км 10/9 450 м
[Cu Sc]
+9.7 +7.4 86 +6 +6 1021.4 1016.4
ЮЗ 7 22 км в посл. час дождь 10/9 540 м
[Cu Sc]
+9.6 +7.0 84 +6 +6 1020.5 1015.5
ЮЗ 7 15 км слаб. дождь 10/9 240 м
[Cu Sc As op]
+8.7 +8.0 95 +4 +4 1019.7 1014.7 0.6
ЮЗ 6 8000 м слаб. дождь 10/6 270 м
[Cu Sc As op]
+8.6 +7.9 95 +4 +4 1019.2 1014.2
З 7 9000 м дождь 10/9 360 м
[Cu Sc As op]
+8.6 +7.6 93 +4 +4 1018.7 1013.7
ЮЗ 6 15 км дождь 10/6 300 м
[Sc As op]
+8.6 +6.8 88 +5 +5 1016.4 1011.4 +8.4 +9.8 8
Ю 5 4000 м дождь 10/9 210 м
[Sc As op]
+8.5 +8.1 97 +5 +5 1014.1 1009.1
ЮЗ 12 20 км слаб. дождь 10/9 300 м
[Sc As op]
+10.4 +9.0 91 +6 +6 1010.9 1006.0
ЮЗ 15 25 км слаб. дождь 10/9 300 м
[Sc As op]
+11.5 +9.7 89 +7 +7 1010.5 1005.6 3
ЮЗ 16 30 км слаб. дождь 10/9 360 м
[Cu Sc As op]
+12.1 +10.1 88 +7 +7 1009.7 1004.8
ЮЗ 15 8000 м дождь 10/9 360 м
[Sc As op]
+12.1 +10.7 91 +8 +8 1010.0 1005.1
ЮЗ 15-22
{25}
6000 м слаб. дождь 10/9 420 м
[Cu Sc As op]
+12.2 +10.7 91 +8 +8 1009.9 1005.0 3
ЮЗ 13 8000 м слаб. дождь 10/9 330 м
[Cu Sc As op]
+12.0 +10.9 93 +8 +8 1010.1 1005.2
ЮЗ 13 6000 м слаб. дождь 10/9 300 м
[Cu Sc]
+12.0 +10.9 93 +8 +8 1010.0 1005.1
З 19 15 км дождь 10/10 400 м
[Cu Sc]
+12.5 +10.6 88 +8 +8 1010.3 1005.4 3
З 10 2500 м сильн. ливневой дождь 10/10 180 м
[Cb cap]
+11.2 +10.8 97 +7 +7 1011.5 1006.6
СЗ 11 35 км слаб. дождь 9/9 300 м
[Cu Sc]
+8.9 +5.6 80 +4 +4 1014.3 1009.3
СЗ 8 45 км в посл. час дождь {ливн. осадки} 9/9 600 м
[Cu Sc]
+8.7 +5.1 78 +4 +4 1016.4 1011.4 +8.1 +12.6 11
СЗ 8 45 км 9/9 800 м
[Cu Sc]
+8.3 +3.5 72 +4 +4 1018.3 1013.3
СЗ 8 40 км 9/3 800 м
[Cu Sc Ac trans]
+7.7 +2.7 71 +3 +3 1020.0 1015.0
СЗ 6 40 км 9/1 800 м
[Cu hum Ac trans]
+7.0 +2.8 75 +3 +3 1021.6 1016.6
СЗ 6-9
{9}
40 км 1/1 800 м
[Cu hum Ac trans Ci fib]
+6.6 +1.8 71 +2 +2 1022.6 1017.6
З 2-3
{8}
35 км 3/1 870 м
[Sc Ac trans Ci fib]
+5.5 +2.2 79 +3 +3 1023.4 1018.3
З 2 35 км 1/0
[Ci fib]
+5.1 +1.4 77 +3 +3 1024.1 1019.0
ЮЗ 3-3
{3}
30 км 3/0
[Ci fib]
+2.1 +0.3 88 -2 -2 1024.3 1019.2
ЮЗ 4-4
{4}
30 км 3/0
[Ci fib]
+2.6 0.0 83 -2 -2 1024.5 1019.4
ЮЗ 4 30 км 4/0
[Ci fib]
+3.0 +0.6 84 -2 -2 1024.5 1019.4
ЮЗ 2-3
{5}
25 км 9/0
[As op]
+3.8 +0.8 81 +1 +1 1024.4 1019.3
ЮЗ 4-6
{6}
30 км 9/0
[Ac trans]
+3.2 +0.9 85 -1 -1 1023.4 1018.3
Ю 3 35 км 9/0
[Ac As]
+4.8 +1.2 77 +1 +1 1022.9 1017.8 +1.7 +8.8
Ю 4-4
{5}
35 км 9/9 2000 м
[Sc]
+4.4 +1.5 81 0 0 1022.4 1017.3
Ю 5-6
{6}
30 км 9/9 1500 м
[Sc]
+4.7 +1.7 81 0 0 1021.2 1016.1
ЮВ 5 35 км слаб. дождь 10/10 1350 м
[Sc]
+5.6 +2.1 78 +1 +1 1019.4 1014.4 0.0
Ю 5-8
{8}
9000 м слаб. дождь 10/10 900 м
[Sc]
+5.4 +3.8 89 +1 +1 1018.1 1013.1
ЮВ 7-11
{11}
5000 м дождь 10/9 240 м
[St]
+5.5 +4.9 96 -0 0 1015.6 1010.6
Ю 8 40 км в посл. час дождь 10/9 210 м
[Sc]
+6.4 +5.5 94 +1 +1 1013.3 1008.3 0.7
Ю 7 20 км слаб. морось 10/9 180 м
[St]
+6.8 +6.2 96 +2 +2 1011.5 1006.5
Ю 8 40 км слаб. морось 10/9 180 м
[Sc]
+8.4 +7.3 93 +4 +4 1009.1 1004.2
ЮЗ 8 40 км слаб. морось 10/9 180 м
[Cu Sc]
+11.3 +9.8 90 +8 +8 1007.9 1003.0 0.1
ЮЗ 11 45 км в посл. час дождь {морось} 10/9 660 м
[Cu Sc]
+11.7 +8.7 82 +8 +8 1006.5 1001.6
ЮЗ 11 20 км слаб. дождь 10/1 330 м
[Frnb As op]
+11.4 +8.1 80 +7 +7 1006.1 1001.2
ЮЗ 9 12 км слаб. дождь {морось} 10/8 300 м
[Sc As op]
+10.6 +9.1 90 +6 +6 1006.0 1001.1 +4.2 +11.8 0.5
ЮЗ 9 25 км слаб. дождь 10/9 360 м
[Sc As op]
+10.5 +9.1 91 +6 +6 1005.8 1000.9
ЮЗ 10 20 км слаб. морось {дождь} 10/10 360 м
[Sc]
+10.7 +8.7 87 +6 +6 1005.7 1000.8
ЮЗ 9 35 км слаб. морось {дождь} 10/10 360 м
[Sc]
+10.5 +8.7 89 +6 +6 1005.2 1000.3 0.3
ЮЗ 10 7000 м дождь {морось} 10/10 400 м
[Sc]
+10.5 +8.8 89 +6 +6 1004.7 999.8
ЮЗ 10 35 км дождь 10/10 400 м
[Sc]
+10.8 +8.8 87 +7 +7 1004.5 999.6
ЮЗ 9 30 км дождь {морось} 10/10 300 м
[Sc]
+10.8 +8.7 87 +7 +7 1003.9 999.0 0.4
ЮЗ 5 25 км дождь 10/9 480 м
[Cu Sc]
+10.0 +8.7 92 +7 +7 1003.6 998.7
ЮЗ 8 50 км в посл. час дождь 6/6 600 м
[Cu Sc]
+9.9 +7.0 82 +6 +6 1003.4 998.5
ЮЗ 7 50 км {дождь} 9/9 600 м
[Cu Sc]
+9.7 +6.7 82 +6 +6 1002.7 997.8 0.0
ЮЗ 7 50 км 9/3 600 м
[Cu Sc Ci fib]
+8.9 +5.7 80 +5 +5 1002.2 997.3
ЮЗ 6 30 км 9/6 600 м
[Cu Sc Ci fib]
+8.5 +5.3 80 +5 +5 1002.3 997.4
ЮЗ 6 25 км {дождь} 9/8 600 м
[Cu Sc Cs]
+7.8 +5.1 83 +4 +4 1001.9 997.0 +7.3 +10.9 0.4
ЮЗ 5 22 км в посл. час ливневой дождь 9/8 540 м
[Cu Sc Ci fib]
+7.8 +5.1 83 +4 +4 1001.8 996.9
ЮЗ 8 27 км в посл. час ливневой дождь 5/5 600 м
[Cu Sc]
+7.7 +3.7 76 +3 +3 1001.6 996.7
З 9 45 км {ливн. осадки} 1/1 840 м
[Cu Sc]
+8.3 +2.6 67 +4 +4 1001.6 996.7 0.0
ЮЗ 10-14
{14}
50 км 6/6 900 м
[Cu Sc Ac trans]
+8.9 +2.5 64 +4 +4 1001.5 996.6
З 9-14
{15}
50 км 5/5 1020 м
[Sc diur, vesp]
+8.1 0.0 57 +4 +4 1001.4 996.5
З 9 50 км {ливн. осадки} 1/1 1020 м
[Cu med, cong]
+9.2 +2.4 62 +5 +5 1000.8 995.9
З 9-13
{13}
60 км 3/3 1080 м
[Cu med, cong]
+10.0 +0.5 52 +6 +6 1000.0 995.1
ЮЗ 9-13
{15}
60 км 3/3 1260 м
[Cu Sc]
+9.1 +0.3 54 +5 +5 999.4 994.5
ЮЗ 7 60 км 6/6 1320 м
[Cu Sc Ac trans Ci fib]
+9.4 +0.7 55 +6 +6 998.5 993.6
ЮЗ 6 45 км осадки на расстоянии 9/9 840 м
[Cb cap]
+8.9 +0.9 57 +5 +5 997.8 992.9
ЮЗ 9 14 км слаб. ливневой дождь 10/9 540 м
[Cb cap]
+5.0 +2.9 86 -1 -1 998.1 993.2
ЮЗ 4 14 км слаб. дождь 10/8 300 м
[Cu Sc As op]
+4.9 +3.5 91 +1 +1 997.7 992.8 +4.2 +10.2 2
ЮЗ 5 18 км слаб. дождь 10/8 300 м
[Cu Sc As op]
+4.0 +2.9 93 -1 -1 997.6 992.6
ЮЗ 4 15 км слаб. дождь 10/9 180 м
[Sc]
+3.5 +2.8 95 -1 -1 997.1 992.1
ЮЗ 4 30 км слаб. ливневой дождь 10/9 180 м
[Cb calv]
+3.5 +2.6 94 -1 -1 996.1 991.1 0.9
Ю 2 20 км слаб. ливневой дождь 10/9 300 м
[Cu med, cong]
+3.8 +2.9 94 +1 +1 995.2 990.2
Ю 4 30 км в посл. час ливневой дождь 9/4 330 м
[Cu hum Ac As]
+4.0 +2.8 92 -1 -1 993.8 988.9
ЮЗ 6 25 км в посл. час ливневой дождь 9/9 200 м
[Cu med, cong]
+4.0 +3.0 93 -2 -2 993.7 988.8 2
ЮЗ 6 40 км 10/9 420 м
[Cu Sc]
+4.2 +2.5 89 -1 -1 993.4 988.5
ЮЗ 7 40 км 10/9 750 м
[Sc]
+4.3 +1.3 81 -1 -1 992.9 988.0
ЮЗ 9 20 км слаб. ливневой дождь 10/9 360 м
[Cu med, cong]
+3.9 +1.1 82 -3 -3 992.5 987.6 0.0
ЮЗ 10-15
{16}
8000 м ливневой дождь со снегом 10/9 210 м
[Cb calv]
+1.5 +0.7 94 -6 -6 992.6 987.6
З 7-9
{14}
2000 м ливневой снег 10/9 120 м
[Cb calv]
+0.6 +0.4 99 -7 -7 993.2 988.2
З 8 4000 м слаб. дождь со снегом 10/9 100 м
[St]
+0.9 +0.6 98 -7 -7 993.6 988.6 +0.5 +5.1 8
З 7 2000 м снег 10/9 120 м
[St]
+0.9 +0.5 97 -6 -6 994.6 989.6
З 5 4000 м слаб. снег 10/9 120 м
[St]
+0.7 +0.5 99 -5 -5 995.8 990.8
З 5 6000 м слаб. дождь со снегом 10/9 150 м
[St]
+1.3 +1.0 98 -5 -5 997.1 992.1 3
З 6 7000 м дождь {снег, морось} 10/9 150 м
[St]
+1.8 +1.2 96 -5 -4 998.2 993.2
З 7 10 км слаб. ливневой дождь со снегом {морось} 10/9 210 м
[Sc]
+3.1 +2.1 93 -3 -3 999.4 994.4
З 5 15 км в посл. час ливневой снег {дождь} 9/9 240 м
[Cu Sc]
+4.1 +2.9 92 -1 -1 999.9 994.9 0.5
З 8 25 км в посл. час ливневой дождь 9/8 420 м
[Cb cap Ac trans Ci sp]
+4.6 +2.1 84 -1 -1 1000.6 995.6
З 8 17 км осадки на расстоянии 9/9 400 м
[Cb cap]
+4.6 +2.1 84 -1 -1 1001.4 996.4
З 7 30 км в посл. час ливневой дождь 9/8 480 м
[Cu Sc Ac As]
+4.8 +2.1 83 -1 -1 1002.2 997.2 0.0
З 6 15 км осадки на расстоянии 9/8 400 м
[Cb cap Ac As]
+4.5 +2.1 84 -1 -1 1002.8 997.8
З 5 12 км слаб. крупа 9/9 300 м
[Cb cap]
+3.8 +2.0 88 -1 -1 1004.1 999.1
ЮЗ 4 22 км в посл. час крупа {ливн. осадки} 8/5 300 м
[Cb cap Ac As Ci sp]
+3.3 +2.2 92 -1 -1 1004.8 999.8 +0.6 +5.2 0.5
З 3 22 км в посл. час крупа 8/6 360 м
[Cb cap Ac As Ci sp]
+3.3 +2.2 92 -1 -1 1005.6 1000.6
ЮЗ 5 30 км в посл. час ливневой дождь 4/4 360 м
[Cu Sc]
+3.0 +1.7 91 -2 -2 1006.0 1001.0
ЮЗ 5 30 км в посл. час ливневой дождь 6/6 360 м
[Cu Sc]
+3.0 +1.6 91 -2 -2 1006.4 1001.4 0.4
ЮЗ 4 30 км в посл. час ливневой дождь 6/6 660 м
[Cu Sc]
+2.7 +1.6 92 -2 -2 1006.6 1001.6
ЮЗ 5 26 км 9/9 360 м
[Cu Sc]
+2.6 +1.4 92 -3 -3 1006.7 1001.7
З 2 14 км в посл. час ливневой снег 9/9 200 м
[Cu Sc]
+2.3 +1.3 93 -1 -1 1006.7 1001.7 0.8
ЮЗ 4 16 км 9/9 360 м
[Cu Sc]
+2.4 +1.4 93 -3 -3 1006.6 1001.6
ЮЗ 4 14 км 9/9 360 м
[Cu Sc]
+2.2 +1.4 94 -3 -3 1006.5 1001.5
ЮЗ 4 16 км в посл. час ливневой дождь 9/9 360 м
[Cu Sc]
+2.6 +1.7 94 -2 -2 1006.1 1001.1 0.0
ЮЗ 4 18 км 5/3 840 м
[Sc Ac trans Ci fib]
+1.6 +0.7 94 -4 -4 1005.8 1000.8
ЮЗ 4 18 км 10/1 840 м
[Sc Ac und Cs]
+1.9 +0.9 93 -3 -3 1005.2 1000.2
Ю 4 18 км {ливн. осадки} 9/5 1000 м
[Sc Ac trans]
+2.4 +0.8 89 -3 -3 1004.3 999.3 +1.5 +3.6 0.8
Ю 4 25 км 9/1 1050 м
[Sc As op]
+2.6 +1.0 89 -2 -2 1003.6 998.6
Ю 6 30 км 10/5 1050 м
[Sc As op]
+3.3 +1.2 86 -2 -2 1002.9 997.9
Ю 8 30 км 10/9 1140 м
[Sc As op]
+3.9 +0.7 80 -2 -2 1001.7 996.7
ЮВ 5 35 км в посл. час дождь 10/1 1080 м
[Sc As trans]
+4.7 +1.1 77 0 +1 1000.2 995.2
Ю 6 35 км слаб. дождь 10/6 660 м
[Cu Sc As op]
+5.2 +1.1 75 0 +1 998.6 993.7
ЮВ 6 9000 м слаб. дождь 10/9 300 м
[Sc]
+3.6 +1.8 88 -2 -2 997.4 992.4 0.3
ЮВ 5 10 км слаб. дождь 10/9 270 м
[Sc]
+3.4 +2.2 92 -2 -2 995.5 990.5
В 6 9000 м слаб. дождь 10/9 240 м
[St]
+3.2 +1.9 91 -3 -3 994.6 989.6
В 5 5000 м слаб. дождь со снегом 10/9 210 м
[St]
+1.9 +1.1 94 -4 -4 995.0 990.0 3
СВ 3-4
{6}
5000 м дождь со снегом 10/9 180 м
[St]
+1.4 +1.0 97 -3 -3 996.0 991.0
С 3 5000 м слаб. дождь со снегом 10/9 180 м
[St]
+1.3 +1.1 99 -3 -3 997.7 992.7
СЗ 4 5000 м слаб. дождь 10/9 100 м
[St]
+1.7 +1.2 96 -4 -4 1000.1 995.1 +1.2 +5.2 7
З 4 1800 м снег {дождь} 10/9 60 м
[St]
+0.5 +0.3 99 -5 -5 1002.6 997.5
З 5 6000 м в посл. час снег 10/10 120 м
[St]
+1.1 +0.9 99 -5 -5 1004.4 999.3
З 5 8000 м в посл. час дождь 10/10 210 м
[St]
+2.0 +1.4 96 -4 -4 1006.5 1001.5 2
З 4-6
{8}
13 км 9/9 330 м
[Cu Sc]
+2.7 +1.8 94 -2 -2 1008.2 1003.2
З 5 20 км 8/8 400 м
[Cu Sc]
+2.6 +1.6 93 -3 -3 1010.1 1005.0
З 3 30 км {снег, дождь} 1/1 1000 м
[Sc]
+1.8 +0.6 92 -3 -3 1011.3 1006.2 2
З 4 27 км 5/5 1080 м
[Sc Ac trans]
+1.6 +0.5 92 -4 -4 1012.7 1007.6
ЮЗ 5 25 км 8/8 1000 м
[Sc Ac trans]
+1.8 +0.2 89 -4 -4 1013.8 1008.7
ЮЗ 4 27 км 4/4 1000 м
[Sc]
+1.6 +0.1 90 -4 -4 1014.4 1009.3
ЮЗ 6 25 км 9/9 1000 м
[Sc]
+2.2 +0.6 89 -4 -4 1015.3 1010.2
ЮЗ 5-6
{7}
25 км 3/3 1500 м
[Sc Ac trans]
+2.0 +0.3 88 -4 -4 1016.0 1010.9
ЮЗ 5 25 км 1/1 600 м
[Sc]
+0.9 -0.4 91 -5 -5 1016.3 1011.2 +0.4 +2.8 2
ЮЗ 5-6
{6}
25 км 1/1 840 м
[Sc Ci sp]
+0.2 -0.8 93 -6 -6 1017.0 1011.9
ЮЗ 5-7
{7}
30 км 6/0
[Ci sp]
+1.7 0.0 88 -4 -3 1017.7 1012.6
ЮЗ 5 30 км 9/0
[Ci sp]
+3.5 +0.9 83 -2 -0 1017.8 1012.7
ЮЗ 6 30 км 9/1 360 м
[Cu hum Ci sp]
+4.2 +0.9 79 -1 0 1018.0 1012.9
Ю 7 35 км 9/1 660 м
[Cu hum Cs]
+5.7 +1.4 74 +1 +2 1017.8 1012.8
ЮЗ 7 40 км 9/1 660 м
[Cu hum As trans Cs]
+6.9 +1.9 70 +2 +3 1016.9 1011.9
ЮЗ 8 45 км 9/1 660 м
[Cu hum As trans]
+6.7 +0.2 63 +2 +2 1015.8 1010.8
Ю 6 50 км 9/1 750 м
[Cu hum As trans]
+7.1 +0.1 61 +3 +4 1015.0 1010.0
Ю 7 55 км 10/1 900 м
[Cu hum As op]
+7.0 -0.3 60 +3 +3 1014.0 1009.0
Ю 8-12
{12}
50 км осадки на расстоянии 10/0
[As op]
+6.4 -0.2 63 +1 +1 1012.8 1007.8
Ю 8 40 км осадки на расстоянии 10/6 1050 м
[Sc As op]
+6.1 +0.3 66 +1 +1 1011.4 1006.4
Ю 10 15 км слаб. дождь 10/9 300 м
[Cu Sc As op]
+4.5 +1.1 79 -2 -2 1009.9 1004.9 -0.1 +7.4 0.2
Ю 11 10 км слаб. дождь 10/9 360 м
[Cu Sc As op]
+4.4 +2.2 86 -3 -3 1008.2 1003.2
Ю 11 10 км слаб. дождь 10/9 360 м
[Sc]
+3.8 +2.5 91 -4 -4 1006.4 1001.4
Ю 10 4500 м слаб. дождь 10/9 240 м
[St]
+4.0 +3.1 94 -3 -3 1005.7 1000.7 5
Ю 8 15 км в посл. час дождь {морось} 10/9 210 м
[Sc]
+4.3 +3.4 94 -2 -2 1005.0 1000.0
Ю 8-10
{12}
30 км в посл. час морось 10/9 570 м
[Sc]
+5.3 +3.3 87 -1 -1 1003.5 998.5
Ю 8 15 км слаб. морось {дождь} 10/9 300 м
[Sc]
+5.7 +4.3 91 0 0 1002.7 997.7 5
Местоположение метеостанции Дюссельдорф (Германия): широта 51.28 долгота 6.78 высота над уровнем моря 45 м.
В архиве по умолчанию представлена погода в Дюссельдорфе за последнюю неделю. Архивные данные за месяц целиком и за предыдущие месяцы, начиная с января 2011 года, Вы можете получить, выбрав интересующий диапазон дат из раскрывающегося списка и нажав кнопку "Найти!".
*Определитесь, кто Вы:
Внимание! Время в таблицах - всемирное. Для получения местного времени необходимо прибавить поправку, которая равна 1 ч.
Смотрите также архив погоды в соседних городах и на ближайших метеорологических станциях:
Партнеры нашего сайта:      
Пояснения к столбцам:
  • Ветер - указаны скорость ветра в м/с - средняя за 10 мин, порывы в срок и между сроками (в фигурных скобках) и направление, откуда дует ветер: С - северный,
  • СВ - северо-восточный, В - восточный, ЮВ - юго-восточный, Ю - южный, ЮЗ - юго-западный, З - западный, СЗ - северо-западный.
  • Видимость - горизонтальная дальность видимости в метрах или километрах. При видимости от 1 до 10 км при отсутствии осадков обычно наблюдается дымка, при ухудшении видимости до 1 км и менее - туман. В сухую погоду видимость может ухудшаться дымом, пылью или мглою.
  • Явления - указаны атмосферные явления, наблюдавшиеся в срок или в последний час перед сроком; фигурными скобками обозначены явления, наблюдавшиеся между сроками (за 1-3 часа до срока); квадратными скобками обозначены град или гололедные отложения с указанием их диаметра в мм.
  • Облачность - указаны через наклонную черту общая и нижняя облачность в баллах и высота нижней границы облаков в метрах; квадратными скобками обозначены формы облаков: Ci - перистые, Cs - перисто-слоистые, Cc - перисто-кучевые, Ac - высококучевые, As - высокослоистые, Sc - слоисто-кучевые, Ns - слоисто-дождевые, Cu - кучевые, Cb - кучево-дождевые. Подробнее классификацию облаков см. в Атласе облаков (PDF).
  • T - Температура воздуха - температура, измеренная на высоте 2 м над землей.
  • Td - Температура точки росы - температура, при понижении до которой содержащийся в воздухе водяной пар достигнет насыщения.
  • f - Относительная влажность воздуха - влажноcть воздуха, измеренная на высоте 2 м над землей.
  • Te - Эффективная температура - температура, которую ощущает одетый по сезону человек в тени. Характеристика душности погоды. При расчете учитывается влияние влажности воздуха и скорости ветра на теплоощущения человека.
  • Tes - Эффективная температура на солнце - температура, которую ощущает человек, с поправкой на солнечный нагрев. Характеристика знойности погоды. Зависит от высоты солнца над горизонтом, облачности и скорости ветра. Ночью, в пасмурную погоду, а также при ветре 12 м/с и более поправка равна нулю.
  • P - Атмосферное давление - приведенное к уровню моря атмосферное давление.
  • Po - Атмосферное давление - измеренное на уровне метеостанции атмосферное давление.
  • Tmin - Минимальная температура - минимум температуры воздуха на высоте 2 м над землей.
  • Tmax - Максимальная температура - максимум температуры воздуха на высоте 2 м над землей.
  • R - Количество осадков - Количество выпавших осадков за период времени, мм. При наведении курсора мыши на число - период времени, за который выпало указанное количество осадков.
  • R24 - Количество осадков - Количество выпавших осадков за 24 часа, мм.
  • S - Снежный покров - Высота снежного покрова, см. При наведении курсора мыши на число - состояние снежного покрова и степень покрытия местности в баллах.